EZY618Y EGJJ-EGPH

Flight info

Callsign EZY618Y
Flight time 1h 14m
Altitude 24000
Route OYSTA2B SKERY L22 EMWIP P16 FIMCA/N0434F370 DCT BHD DCT WIGGU DCT AZCAL DCT AVTIC DCT ANJAK/N0430F360 N38 NOKIN UP16 RIBEL DCT INPIP INPIP1E
Aircraft A320/M-SDE1E2E3FGHIRWXY/LB1

Departure

Time 2026-04-26 09:17
Airport Jersey Airport (EGJJ)

Arrival

Time 2026-04-26 10:31
Airport Edinburgh Airport (EGPH)
Time Latitude Longitude Altitude Speed Heading
2026-04-26 08:48 49.20562 -2.19637 284 ft 0 kts 159°
2026-04-26 09:09 49.20566 -2.19639 284 ft 2 kts 159°
2026-04-26 09:09 49.20582 -2.19649 287 ft 2 kts 159°
2026-04-26 09:10 49.20598 -2.19659 287 ft 2 kts 159°
2026-04-26 09:10 49.20614 -2.19668 284 ft 2 kts 159°
2026-04-26 09:10 49.20630 -2.19672 288 ft 2 kts 194°
2026-04-26 09:10 49.20646 -2.19665 284 ft 2 kts 211°
2026-04-26 09:11 49.20660 -2.19652 289 ft 2 kts 212°
2026-04-26 09:11 49.20661 -2.19651 289 ft 0 kts 212°
2026-04-26 09:13 49.20660 -2.19652 289 ft 1 kts 212°
2026-04-26 09:13 49.20637 -2.19674 284 ft 6 kts 212°
2026-04-26 09:13 49.20613 -2.19751 284 ft 11 kts 263°
2026-04-26 09:13 49.20605 -2.19867 287 ft 11 kts 263°
2026-04-26 09:14 49.20563 -2.19930 284 ft 8 kts 182°
2026-04-26 09:14 49.20517 -2.19977 284 ft 12 kts 268°
2026-04-26 09:14 49.20540 -2.20097 287 ft 11 kts 287°
2026-04-26 09:14 49.20563 -2.20218 287 ft 15 kts 287°
2026-04-26 09:15 49.20598 -2.20397 286 ft 18 kts 287°
2026-04-26 09:15 49.20624 -2.20557 284 ft 13 kts 276°
2026-04-26 09:15 49.20635 -2.20682 287 ft 11 kts 300°
2026-04-26 09:15 49.20698 -2.20690 288 ft 10 kts 34°
2026-04-26 09:16 49.20707 -2.20651 283 ft 0 kts 84°
2026-04-26 09:16 49.20709 -2.20614 283 ft 24 kts 84°
2026-04-26 09:16 49.20768 -2.19913 285 ft 104 kts 83°
2026-04-26 09:16 49.20881 -2.18521 408 ft 150 kts 82°
2026-04-26 09:17 49.21015 -2.16928 1137 ft 153 kts 84°
2026-04-26 09:17 49.21159 -2.15249 1733 ft 167 kts 85°
2026-04-26 09:17 49.21162 -2.13366 2008 ft 189 kts 103°
2026-04-26 09:17 49.20652 -2.11418 2339 ft 208 kts 126°
2026-04-26 09:18 49.19540 -2.09851 2663 ft 232 kts 151°
2026-04-26 09:18 49.18082 -2.08623 3195 ft 250 kts 147°
2026-04-26 09:18 49.16517 -2.07373 3971 ft 259 kts 165°
2026-04-26 09:18 49.14715 -2.07386 4813 ft 264 kts 198°
2026-04-26 09:19 49.13135 -2.08841 5591 ft 270 kts 226°
2026-04-26 09:19 49.12129 -2.11270 6386 ft 275 kts 251°
2026-04-26 09:19 49.11832 -2.14120 7150 ft 278 kts 274°
2026-04-26 09:19 49.12135 -2.17054 7957 ft 281 kts 281°
2026-04-26 09:20 49.12507 -2.19978 8762 ft 284 kts 281°
2026-04-26 09:20 49.12889 -2.22978 9581 ft 287 kts 280°
2026-04-26 09:20 49.13258 -2.26005 10309 ft 295 kts 277°
2026-04-26 09:20 49.13235 -2.29195 10521 ft 316 kts 264°
2026-04-26 09:21 49.13027 -2.32649 10875 ft 333 kts 264°
2026-04-26 09:21 49.12811 -2.36213 11518 ft 338 kts 264°
2026-04-26 09:21 49.12423 -2.39774 12237 ft 341 kts 256°
2026-04-26 09:21 49.11807 -2.43283 12975 ft 343 kts 253°
2026-04-26 09:22 49.11370 -2.46825 13679 ft 347 kts 270°
2026-04-26 09:22 49.11886 -2.50430 14344 ft 353 kts 292°
2026-04-26 09:22 49.13152 -2.53669 14982 ft 358 kts 307°
2026-04-26 09:22 49.14947 -2.56339 15611 ft 363 kts 322°
2026-04-26 09:23 49.17123 -2.58372 16227 ft 367 kts 328°
2026-04-26 09:23 49.19328 -2.60298 16851 ft 370 kts 328°
2026-04-26 09:23 49.21575 -2.62239 17467 ft 373 kts 328°
2026-04-26 09:23 49.23857 -2.64197 18075 ft 375 kts 328°
2026-04-26 09:24 49.26150 -2.66159 18660 ft 378 kts 328°
2026-04-26 09:24 49.28457 -2.68136 19160 ft 382 kts 327°
2026-04-26 09:24 49.30756 -2.70108 19657 ft 385 kts 327°
2026-04-26 09:24 49.33110 -2.72131 20166 ft 388 kts 327°
2026-04-26 09:25 49.35485 -2.74178 20687 ft 391 kts 327°
2026-04-26 09:25 49.37849 -2.76221 21200 ft 394 kts 327°
2026-04-26 09:25 49.40252 -2.78299 21714 ft 397 kts 327°
2026-04-26 09:25 49.42675 -2.80385 22218 ft 401 kts 329°
2026-04-26 09:26 49.45247 -2.82151 22713 ft 406 kts 334°
2026-04-26 09:26 49.47876 -2.83815 23196 ft 409 kts 334°
2026-04-26 09:26 49.50488 -2.85470 23667 ft 412 kts 334°
2026-04-26 09:26 49.53154 -2.87161 24076 ft 415 kts 334°
2026-04-26 09:27 49.55829 -2.88865 24455 ft 417 kts 334°
2026-04-26 09:27 49.58531 -2.90593 24846 ft 419 kts 334°
2026-04-26 09:27 49.61201 -2.92301 25212 ft 421 kts 334°
2026-04-26 09:27 49.63921 -2.94040 25579 ft 423 kts 334°
2026-04-26 09:28 49.66664 -2.95794 25937 ft 426 kts 334°
2026-04-26 09:28 49.69391 -2.97541 26286 ft 428 kts 334°
2026-04-26 09:28 49.72166 -2.99323 26653 ft 429 kts 334°
2026-04-26 09:28 49.74915 -3.01088 27016 ft 431 kts 334°
2026-04-26 09:29 49.77679 -3.02864 27364 ft 433 kts 334°
2026-04-26 09:29 49.80452 -3.04650 27699 ft 435 kts 334°
2026-04-26 09:29 49.83252 -3.06458 28019 ft 437 kts 334°
2026-04-26 09:29 49.86073 -3.08281 28338 ft 439 kts 334°
2026-04-26 09:30 49.88897 -3.10107 28645 ft 441 kts 334°
2026-04-26 09:30 49.91735 -3.11944 28944 ft 443 kts 334°
2026-04-26 09:30 49.94578 -3.13795 29244 ft 444 kts 333°
2026-04-26 09:30 49.97257 -3.16044 29513 ft 442 kts 323°
2026-04-26 09:31 49.99677 -3.18956 29794 ft 440 kts 314°
2026-04-26 09:31 50.01765 -3.22427 30032 ft 439 kts 304°
2026-04-26 09:31 50.03485 -3.26335 30270 ft 438 kts 300°
2026-04-26 09:31 50.05368 -3.30097 30485 ft 444 kts 310°
2026-04-26 09:32 50.07708 -3.33287 30692 ft 451 kts 321°
2026-04-26 09:32 50.10399 -3.35830 30900 ft 456 kts 330°
2026-04-26 09:32 50.13242 -3.38052 31111 ft 457 kts 329°
2026-04-26 09:32 50.16075 -3.40306 31407 ft 456 kts 329°
2026-04-26 09:33 50.18888 -3.42574 31681 ft 456 kts 329°
2026-04-26 09:33 50.21703 -3.44860 31968 ft 455 kts 329°
2026-04-26 09:33 50.24528 -3.47091 32254 ft 456 kts 333°
2026-04-26 09:33 50.27527 -3.48746 32543 ft 459 kts 342°
2026-04-26 09:34 50.30682 -3.49627 32828 ft 463 kts 352°
2026-04-26 09:34 50.33920 -3.49717 33100 ft 466 kts 359°
2026-04-26 09:34 50.37156 -3.49528 33386 ft 465 kts 359°
2026-04-26 09:34 50.40384 -3.49311 33696 ft 464 kts
2026-04-26 09:35 50.43605 -3.48912 33995 ft 464 kts
2026-04-26 09:35 50.46816 -3.48335 34278 ft 464 kts
2026-04-26 09:35 50.50027 -3.47652 34532 ft 464 kts
2026-04-26 09:35 50.53218 -3.46940 34782 ft 463 kts
2026-04-26 09:36 50.56411 -3.46241 35031 ft 462 kts
2026-04-26 09:36 50.59593 -3.45581 35273 ft 461 kts
2026-04-26 09:36 50.62766 -3.44960 35555 ft 458 kts
2026-04-26 09:36 50.65927 -3.44364 35805 ft 457 kts
2026-04-26 09:37 50.69082 -3.43778 36021 ft 456 kts
2026-04-26 09:37 50.72231 -3.43190 36229 ft 456 kts
2026-04-26 09:37 50.75339 -3.42605 36292 ft 454 kts
2026-04-26 09:38 50.81604 -3.41411 36304 ft 453 kts
2026-04-26 09:38 50.87845 -3.40209 36301 ft 451 kts
2026-04-26 09:39 50.94077 -3.39002 36301 ft 451 kts
2026-04-26 09:39 51.00303 -3.37803 36299 ft 451 kts
2026-04-26 09:40 51.06550 -3.36587 36296 ft 451 kts
2026-04-26 09:40 51.12763 -3.35370 36302 ft 451 kts
2026-04-26 09:41 51.18984 -3.34162 36297 ft 451 kts
2026-04-26 09:41 51.25236 -3.32927 36306 ft 451 kts
2026-04-26 09:42 51.31445 -3.31677 36318 ft 450 kts
2026-04-26 09:42 51.37655 -3.30415 36314 ft 449 kts
2026-04-26 09:43 51.43825 -3.29151 36317 ft 449 kts
2026-04-26 09:43 51.49008 -3.28089 36315 ft 449 kts
2026-04-26 09:44 51.55160 -3.26828 36320 ft 449 kts
2026-04-26 09:44 51.61374 -3.25569 36320 ft 448 kts
2026-04-26 09:45 51.67550 -3.24303 36345 ft 448 kts
2026-04-26 09:45 51.73745 -3.23025 36347 ft 449 kts
2026-04-26 09:46 51.79941 -3.21750 36357 ft 449 kts
2026-04-26 09:46 51.86121 -3.20480 36349 ft 449 kts
2026-04-26 09:47 51.92325 -3.19276 36343 ft 448 kts
2026-04-26 09:47 51.98490 -3.18694 36336 ft 446 kts 358°
2026-04-26 09:48 52.04703 -3.18409 36333 ft 446 kts 358°
2026-04-26 09:48 52.10926 -3.18045 36331 ft 447 kts 359°
2026-04-26 09:49 52.17142 -3.17559 36335 ft 447 kts 359°
2026-04-26 09:49 52.23330 -3.17056 36335 ft 447 kts 359°
2026-04-26 09:50 52.29527 -3.16567 36348 ft 447 kts 359°
2026-04-26 09:50 52.35733 -3.16088 36348 ft 447 kts 359°
2026-04-26 09:51 52.41943 -3.15608 36345 ft 446 kts 359°
2026-04-26 09:51 52.48154 -3.15128 36343 ft 446 kts 359°
2026-04-26 09:52 52.54349 -3.14643 36352 ft 446 kts 359°
2026-04-26 09:52 52.63654 -3.13902 36343 ft 446 kts 359°
2026-04-26 09:53 52.69831 -3.13246 36338 ft 449 kts
2026-04-26 09:53 52.75829 -3.10143 36340 ft 457 kts 22°
2026-04-26 09:54 52.81605 -3.05617 36325 ft 458 kts 21°
2026-04-26 09:54 52.87336 -3.01136 36325 ft 458 kts 21°
2026-04-26 09:55 52.93209 -2.97128 36328 ft 455 kts 16°
2026-04-26 09:55 52.99171 -2.93482 36350 ft 455 kts 16°
2026-04-26 09:56 53.05091 -2.89862 36341 ft 455 kts 16°
2026-04-26 09:56 53.11052 -2.86193 36335 ft 456 kts 16°
2026-04-26 09:57 53.16972 -2.82542 36329 ft 456 kts 16°
2026-04-26 09:57 53.22931 -2.78850 36333 ft 456 kts 16°
2026-04-26 09:58 53.28858 -2.75164 36331 ft 456 kts 16°
2026-04-26 09:58 53.34812 -2.71451 36328 ft 456 kts 17°
2026-04-26 09:59 53.40725 -2.67731 36328 ft 456 kts 17°
2026-04-26 09:59 53.46687 -2.63981 36321 ft 456 kts 17°
2026-04-26 10:00 53.52598 -2.60258 36314 ft 456 kts 17°
2026-04-26 10:00 53.58568 -2.56490 36322 ft 456 kts 17°
2026-04-26 10:01 53.64470 -2.52758 36321 ft 455 kts 17°
2026-04-26 10:01 53.70411 -2.48988 36324 ft 455 kts 17°
2026-04-26 10:02 53.76315 -2.45222 36342 ft 455 kts 17°
2026-04-26 10:02 53.82258 -2.41409 36336 ft 455 kts 17°
2026-04-26 10:03 53.88153 -2.37628 36331 ft 455 kts 17°
2026-04-26 10:03 53.94087 -2.33803 36329 ft 455 kts 17°
2026-04-26 10:04 54.00177 -2.31408 36331 ft 445 kts 358°
2026-04-26 10:04 54.06201 -2.32401 36316 ft 434 kts 340°
2026-04-26 10:05 54.11806 -2.35997 36310 ft 429 kts 333°
2026-04-26 10:05 54.17347 -2.39846 36310 ft 430 kts 333°
2026-04-26 10:06 54.22863 -2.43684 36323 ft 430 kts 333°
2026-04-26 10:06 54.28435 -2.47568 36317 ft 430 kts 333°
2026-04-26 10:07 54.33947 -2.51423 36310 ft 431 kts 333°
2026-04-26 10:07 54.39508 -2.55326 36314 ft 431 kts 333°
2026-04-26 10:08 54.42289 -2.57280 36192 ft 432 kts 333°
2026-04-26 10:08 54.45103 -2.59263 35188 ft 440 kts 333°
2026-04-26 10:08 54.47945 -2.61272 34367 ft 442 kts 333°
2026-04-26 10:08 54.50800 -2.63290 33532 ft 441 kts 333°
2026-04-26 10:09 54.53572 -2.65244 33073 ft 433 kts 333°
2026-04-26 10:09 54.56343 -2.67196 32508 ft 428 kts 333°
2026-04-26 10:09 54.59098 -2.69139 31947 ft 423 kts 332°
2026-04-26 10:09 54.61786 -2.71045 31407 ft 419 kts 332°
2026-04-26 10:10 54.64474 -2.72960 30869 ft 415 kts 332°
2026-04-26 10:10 54.67141 -2.74864 30330 ft 412 kts 332°
2026-04-26 10:10 54.69784 -2.76754 29758 ft 408 kts 332°
2026-04-26 10:10 54.72392 -2.78620 29272 ft 403 kts 332°
2026-04-26 10:11 54.74947 -2.80450 28742 ft 399 kts 332°
2026-04-26 10:11 54.77502 -2.82284 28230 ft 395 kts 332°
2026-04-26 10:11 54.80036 -2.84104 27736 ft 391 kts 332°
2026-04-26 10:11 54.82516 -2.85885 27259 ft 387 kts 333°
2026-04-26 10:12 54.85001 -2.87674 26787 ft 384 kts 333°
2026-04-26 10:12 54.87461 -2.89449 26327 ft 381 kts 333°
2026-04-26 10:12 54.89910 -2.91217 25802 ft 382 kts 333°
2026-04-26 10:12 54.92336 -2.92973 25277 ft 381 kts 333°
2026-04-26 10:13 54.94789 -2.94747 24740 ft 381 kts 333°
2026-04-26 10:13 54.97237 -2.96518 24219 ft 381 kts 334°
2026-04-26 10:13 54.99680 -2.98292 23640 ft 381 kts 334°
2026-04-26 10:13 55.02124 -3.00066 23083 ft 379 kts 334°
2026-04-26 10:14 55.04565 -3.01840 22543 ft 377 kts 334°
2026-04-26 10:14 55.06951 -3.03575 22036 ft 376 kts 334°
2026-04-26 10:14 55.09366 -3.05335 21508 ft 374 kts 334°
2026-04-26 10:14 55.11767 -3.07089 20980 ft 373 kts 334°
2026-04-26 10:15 55.14158 -3.08837 20458 ft 372 kts 334°
2026-04-26 10:15 55.16555 -3.10592 19781 ft 375 kts 334°
2026-04-26 10:15 55.18995 -3.12387 19096 ft 380 kts 334°
2026-04-26 10:15 55.21397 -3.14151 18719 ft 375 kts 334°
2026-04-26 10:16 55.23801 -3.15918 18217 ft 373 kts 334°
2026-04-26 10:16 55.26183 -3.17671 17823 ft 368 kts 334°
2026-04-26 10:16 55.28502 -3.19293 17685 ft 357 kts 339°
2026-04-26 10:16 55.30923 -3.20075 17549 ft 350 kts 354°
2026-04-26 10:17 55.33348 -3.19886 17410 ft 343 kts
2026-04-26 10:17 55.35669 -3.19503 17154 ft 337 kts
2026-04-26 10:17 55.37988 -3.18959 16795 ft 336 kts
2026-04-26 10:17 55.40299 -3.18288 16418 ft 334 kts
2026-04-26 10:18 55.42584 -3.17573 16060 ft 333 kts
2026-04-26 10:18 55.44858 -3.16854 15706 ft 331 kts
2026-04-26 10:18 55.47125 -3.16147 15331 ft 330 kts
2026-04-26 10:18 55.49356 -3.15465 14993 ft 328 kts
2026-04-26 10:19 55.51607 -3.14785 14642 ft 327 kts
2026-04-26 10:19 55.53844 -3.14115 14303 ft 325 kts
2026-04-26 10:19 55.56078 -3.13450 13952 ft 324 kts
2026-04-26 10:19 55.58305 -3.12790 13575 ft 322 kts
2026-04-26 10:20 55.60482 -3.12145 13211 ft 320 kts
2026-04-26 10:20 55.61967 -3.11708 12959 ft 319 kts
2026-04-26 10:20 55.64864 -3.10851 12479 ft 317 kts
2026-04-26 10:20 55.67032 -3.10204 12138 ft 315 kts
2026-04-26 10:21 55.69192 -3.09558 11778 ft 314 kts
2026-04-26 10:21 55.71338 -3.08917 11421 ft 311 kts
2026-04-26 10:21 55.73474 -3.08277 11049 ft 310 kts
2026-04-26 10:21 55.75570 -3.07648 10725 ft 308 kts
2026-04-26 10:22 55.77672 -3.07017 10403 ft 305 kts
2026-04-26 10:22 55.79748 -3.06395 10040 ft 303 kts
2026-04-26 10:22 55.81829 -3.05772 9651 ft 301 kts
2026-04-26 10:22 55.83891 -3.05153 9259 ft 299 kts
2026-04-26 10:23 55.85935 -3.04536 8877 ft 297 kts
2026-04-26 10:23 55.87968 -3.03896 8492 ft 295 kts
2026-04-26 10:23 55.89974 -3.03248 8104 ft 294 kts
2026-04-26 10:23 55.91976 -3.02596 7717 ft 292 kts
2026-04-26 10:24 55.93972 -3.01974 7309 ft 288 kts
2026-04-26 10:24 55.95921 -3.01991 6702 ft 282 kts 350°
2026-04-26 10:24 55.97861 -3.02447 5997 ft 280 kts 350°
2026-04-26 10:24 55.99779 -3.02893 5331 ft 276 kts 351°
2026-04-26 10:25 56.01683 -3.03339 4646 ft 273 kts 351°
2026-04-26 10:25 56.03535 -3.03759 4194 ft 261 kts 351°
2026-04-26 10:25 56.05250 -3.04370 3889 ft 241 kts 333°
2026-04-26 10:25 56.06485 -3.06138 3634 ft 220 kts 300°
2026-04-26 10:26 56.06907 -3.08581 3377 ft 203 kts 265°
2026-04-26 10:26 56.06441 -3.10835 3153 ft 192 kts 228°
2026-04-26 10:26 56.05365 -3.12078 3042 ft 179 kts 204°
2026-04-26 10:26 56.04236 -3.12814 2995 ft 164 kts 200°
2026-04-26 10:27 56.03200 -3.13596 2939 ft 166 kts 216°
2026-04-26 10:27 56.02449 -3.15115 2809 ft 167 kts 239°
2026-04-26 10:27 56.01847 -3.16916 2595 ft 170 kts 239°
2026-04-26 10:27 56.01232 -3.18755 2368 ft 174 kts 239°
2026-04-26 10:28 56.00602 -3.20633 2130 ft 178 kts 239°
2026-04-26 10:28 55.99960 -3.22544 1864 ft 178 kts 238°
2026-04-26 10:28 55.99344 -3.24373 1624 ft 165 kts 238°
2026-04-26 10:28 55.98764 -3.26095 1410 ft 159 kts 238°
2026-04-26 10:29 55.98209 -3.27741 1220 ft 148 kts 238°
2026-04-26 10:29 55.97690 -3.29281 1008 ft 143 kts 239°
2026-04-26 10:29 55.97179 -3.30790 796 ft 142 kts 239°
2026-04-26 10:29 55.96672 -3.32294 609 ft 142 kts 240°
2026-04-26 10:30 55.96167 -3.33803 411 ft 141 kts 239°
2026-04-26 10:30 55.95665 -3.35284 218 ft 141 kts 239°
2026-04-26 10:30 55.95169 -3.36750 113 ft 128 kts 239°
2026-04-26 10:30 55.94802 -3.37829 114 ft 67 kts 238°
2026-04-26 10:31 55.94705 -3.38065 114 ft 0 kts 175°
2026-04-26 10:31 55.94685 -3.38048 114 ft 8 kts 151°
2026-04-26 10:31 55.94633 -3.37992 113 ft 8 kts 148°
2026-04-26 10:31 55.94593 -3.37941 116 ft 9 kts 129°
2026-04-26 10:32 55.94617 -3.37807 114 ft 15 kts 58°
2026-04-26 10:32 55.94685 -3.37608 115 ft 22 kts 59°
2026-04-26 10:32 55.94773 -3.37347 113 ft 26 kts 58°
2026-04-26 10:32 55.94867 -3.37070 116 ft 27 kts 59°
2026-04-26 10:33 55.94967 -3.36775 115 ft 28 kts 59°
2026-04-26 10:33 55.95071 -3.36469 114 ft 29 kts 59°
2026-04-26 10:33 55.95139 -3.36225 116 ft 17 kts 92°
2026-04-26 10:33 55.95095 -3.36011 113 ft 19 kts 111°
2026-04-26 10:34 55.95031 -3.35833 113 ft 11 kts 160°
2026-04-26 10:34 55.94961 -3.35862 115 ft 9 kts 182°
2026-04-26 10:34 55.94916 -3.35802 114 ft 8 kts 119°
2026-04-26 10:34 55.94885 -3.35704 116 ft 11 kts 118°
2026-04-26 10:35 55.94841 -3.35639 114 ft 9 kts 199°
2026-04-26 10:35 55.94797 -3.35683 114 ft 2 kts 207°
2026-04-26 10:35 55.94791 -3.35689 115 ft 0 kts 207°